Dewpoint
53 53 53 54 54 55 55 55 55 57 57 58 59 60 61 61 61 61 61 62 62 63 63 63 64 64 64 64 64 65 64 63 61 60 59 60 62 63 66 68 67 66 65 59 59 59 57 57 56 57 56 53 52 49 51 48 49 47 41 40 38 39 39 41 37 31 35 35 35 36 36 36 35 36 37 36 35 36 38 42 46 56 57 57 58 59 61 61
53 53 53 54 54 54 54 55 55 56 57 57 58 58 60 61 61 61 61 61 62 62 63 63 64 64 64 64 64 65 63 62 60 59 58 62 64 64 65 66 66 66 63 60 59 58 57 56 56 57 55 52 54 49 49 47 48 44 41 40 40 40 41 42 37 32 30 31 33 33 32 36 36 35 36 33 34 34 35 37 50 55 57 58 59 60 61 61
53 52 52 53 54 53 54 54 55 55 56 57 57 59 59 60 62 62 62 62 62 62 63 63 64 64 64 64 64 64 63 60 58 56 58 63 65 65 65 66 66 66 59 60 60 59 58 57 57 56 54 50 51 49 48 45 46 46 43 40 41 43 42 40 33 31 30 31 29 29 29 36 36 36 37 32 32 35 35 37 42 52 55 57 58 60 60 61
52 52 52 53 53 53 53 54 54 55 55 56 57 57 59 61 61 62 62 62 62 62 63 63 63 64 64 64 64 62 59 51 50 52 56 63 64 65 66 66 67 66 61 60 60 59 59 59 58 56 53 50 51 50 47 47 44 45 43 41 43 44 43 35 32 29 32 31 29 29 30 31 32 36 34 33 31 31 33 35 40 43 56 57 58 59 60 60
51 52 53 52 53 53 53 53 54 54 55 55 56 58 59 60 61 61 62 61 62 62 62 63 63 64 63 63 63 60 53 47 47 53 56 64 64 65 66 66 66 63 60 60 60 60 59 57 56 54 52 48 50 49 48 47 45 45 43 44 44 44 43 43 38 31 33 32 30 30 31 32 32 33 34 32 30 31 31 33 35 41 57 58 58 59 59 60
51 51 51 52 52 53 52 52 53 54 54 54 55 58 59 60 60 61 61 62 61 62 62 62 62 63 63 63 61 59 48 41 57 57 61 65 65 66 66 66 66 61 60 59 59 58 57 57 53 51 50 50 49 48 49 48 48 43 44 43 44 43 42 43 35 31 33 32 31 28 30 30 30 30 31 33 32 33 34 38 39 37 56 59 59 59 59 59
51 50 51 52 51 52 53 54 53 53 54 54 54 57 58 59 59 60 61 61 61 62 62 62 62 63 63 62 60 58 50 48 55 58 65 66 65 66 66 66 65 60 60 59 58 57 56 55 53 50 50 49 49 48 50 50 48 45 43 43 43 42 42 42 37 33 32 31 30 29 29 28 29 31 31 32 33 34 34 34 37 42 53 59 59 59 59 59
51 51 51 51 52 52 53 53 53 53 53 54 54 55 56 58 59 59 60 61 61 61 61 62 62 61 62 60 57 53 53 50 54 59 62 66 66 65 65 64 61 60 59 58 58 57 56 55 53 51 49 49 49 50 50 49 49 47 46 46 46 45 43 42 39 31 32 33 31 32 32 33 30 32 30 30 30 31 32 33 43 46 54 58 58 59 59 59
52 51 51 51 51 52 53 53 53 53 53 53 54 55 55 56 59 59 60 60 61 61 61 61 60 60 61 58 53 50 50 55 57 59 60 63 64 64 63 60 61 59 59 59 58 57 56 53 53 52 48 49 51 50 50 48 47 48 47 46 44 44 44 41 32 30 33 35 31 33 33 32 30 33 32 30 30 31 33 33 43 48 51 56 58 58 58 58
50 51 50 51 51 52 52 53 53 53 53 53 53 54 55 55 57 59 59 60 61 61 61 61 60 61 59 56 54 45 53 57 57 60 61 63 62 61 61 60 60 60 58 58 58 57 55 54 55 54 52 50 51 50 50 48 47 47 47 47 46 45 43 42 35 34 34 37 34 35 34 34 36 36 36 37 32 32 32 32 40 47 48 52 55 57 57 58
50 50 51 51 51 51 52 52 52 53 52 53 53 54 54 55 57 57 58 59 60 61 61 61 60 59 56 55 49 44 57 60 60 58 62 63 62 60 60 60 60 59 59 58 58 58 57 56 56 55 53 50 51 49 48 49 47 46 45 45 44 43 42 42 42 39 38 35 35 36 36 36 37 35 35 36 36 33 31 30 32 44 47 48 50 54 55 56
51 50 51 51 51 51 52 52 53 53 53 53 53 53 53 55 57 58 58 58 59 60 61 61 59 58 55 53 49 46 56 60 61 59 62 63 61 61 61 61 60 60 59 57 58 58 58 57 56 53 49 52 48 49 49 48 45 45 46 45 44 42 41 43 42 41 37 37 36 36 36 36 36 35 35 36 37 36 33 32 31 33 40 47 48 49 51 52
50 49 50 51 52 52 51 51 51 53 53 52 52 53 55 55 56 57 58 59 59 59 60 61 59 57 54 47 49 52 56 60 60 61 61 61 60 60 61 61 61 60 60 58 58 59 58 57 56 53 53 51 50 47 49 49 47 44 43 44 43 42 41 41 41 39 37 38 37 38 35 36 36 36 37 36 35 35 35 35 32 31 32 34 39 45 48 50
51 50 50 50 52 52 52 51 51 51 52 52 52 53 55 55 56 56 57 57 59 59 59 59 58 56 51 49 52 53 54 61 60 59 60 60 59 58 59 60 59 59 58 57 56 57 58 57 56 54 55 52 49 52 50 47 43 42 43 42 42 39 40 40 40 38 37 39 37 39 36 36 37 37 37 37 37 34 34 35 35 33 32 32 34 36 41 44
50 50 50 50 51 52 52 51 51 51 51 52 53 54 55 55 56 55 57 57 57 58 58 59 58 54 49 50 52 54 60 59 56 58 59 59 58 57 58 58 58 58 58 57 56 57 57 56 54 52 50 53 52 50 46 44 43 41 40 40 38 40 39 39 40 38 38 38 37 37 36 36 38 38 38 38 38 36 34 35 35 35 32 31 32 32 33 35
49 50 50 50 50 50 51 52 51 51 51 51 53 54 55 55 56 55 55 56 56 57 57 55 54 54 48 46 50 60 57 54 53 57 60 59 58 57 58 57 57 56 57 55 59 57 57 54 51 51 51 51 49 46 45 44 42 41 40 36 37 37 39 39 40 38 38 38 38 36 35 36 37 38 38 39 38 38 36 36 35 35 34 32 31 30 31 32
49 50 50 50 50 51 52 51 51 51 52 53 53 54 55 55 56 55 54 56 55 56 55 51 53 54 43 50 54 53 52 54 55 58 59 59 58 58 57 56 55 54 55 54 55 56 55 53 50 50 49 47 47 47 44 42 42 42 39 39 37 38 37 38 40 40 39 38 37 36 36 36 37 38 38 39 40 39 38 37 37 36 35 34 33 33 32 31
48 49 50 50 50 51 51 51 51 50 51 52 53 53 52 54 55 52 52 54 52 52 54 56 52 48 46 48 47 48 52 54 54 56 59 58 59 57 56 54 55 54 53 51 54 52 53 50 52 47 46 47 48 47 42 39 42 41 39 37 38 38 38 38 38 39 39 38 37 37 36 36 37 38 38 38 40 38 38 38 38 37 36 35 34 34 36 36
48 49 50 50 50 51 51 51 51 51 51 52 53 53 53 52 50 49 50 51 48 44 42 44 45 38 36 45 48 51 51 55 57 57 57 57 57 57 55 55 54 53 50 50 49 50 50 48 49 46 43 45 46 47 45 42 43 42 42 39 37 38 39 38 39 40 39 38 37 37 36 36 36 37 37 38 38 39 39 40 39 37 37 37 37 37 38 39
48 50 50 50 51 51 51 51 51 51 51 51 51 49 47 45 44 44 48 47 45 43 45 46 47 44 46 46 47 52 53 53 53 56 57 57 55 53 54 54 52 53 50 47 49 50 49 44 42 43 44 45 47 47 47 45 46 43 41 41 39 39 39 40 40 40 40 38 37 37 37 37 36 36 37 38 38 39 39 39 40 40 39 39 39 39 40 41
49 50 51 51 50 50 50 50 50 51 50 50 49 46 40 40 36 34 42 44 47 46 44 46 48 45 44 48 49 51 49 48 51 54 56 57 54 52 50 51 49 46 48 49 47 49 47 43 43 44 45 45 46 47 47 46 46 44 42 40 40 40 39 40 40 43 43 38 37 38 37 37 37 37 37 38 38 38 38 39 39 40 40 40 40 41 41 41
48 49 49 50 50 50 50 51 51 51 51 49 48 44 44 41 42 47 40 35 39 44 45 45 47 46 48 49 52 51 49 47 48 52 55 55 52 49 48 49 47 44 49 47 47 45 43 41 42 44 46 46 46 46 46 45 45 46 44 42 40 41 40 43 44 44 42 39 39 38 38 39 38 38 38 40 40 39 39 39 40 40 40 41 41 41 41 42
48 48 48 49 49 48 48 50 51 51 48 46 45 44 42 43 45 47 41 37 33 39 43 43 43 44 45 48 50 51 47 46 46 51 53 52 50 48 49 47 45 45 47 47 43 42 39 43 43 45 46 45 45 44 44 44 44 44 44 42 41 42 40 38 41 44 44 41 38 38 39 39 39 39 39 40 41 41 42 41 41 41 41 41 41 41 41 41
48 48 48 49 49 49 48 49 50 50 47 45 45 45 44 46 46 45 43 33 32 37 39 41 43 42 43 44 49 49 46 45 47 48 55 52 48 48 48 48 45 45 44 45 44 43 40 44 44 44 44 44 44 44 43 43 42 43 43 43 42 43 43 41 41 44 44 44 41 40 39 39 39 39 38 38 38 39 39 39 39 40 43 43 44 44 43 41
48 48 48 49 48 49 48 50 47 46 47 46 45 45 45 47 48 45 41 37 37 34 40 39 42 42 43 49 50 48 47 46 46 51 54 52 48 47 45 47 46 43 45 46 44 43 42 44 44 42 42 43 42 42 43 42 41 41 42 42 42 43 43 43 42 41 39 40 40 39 35 36 38 39 39 39 38 37 37 37 37 37 38 39 40 40 42 44
48 48 48 49 49 49 50 45 45 47 45 43 45 46 45 47 46 45 37 26 24 32 38 34 40 35 47 45 48 48 48 44 47 50 53 52 49 44 45 44 43 41 44 45 44 43 41 43 44 42 41 41 41 40 42 42 39 38 39 43 42 42 43 42 40 39 37 36 38 40 36 33 34 34 34 36 37 37 36 36 36 36 36 36 37 38 38 39
48 48 48 49 49 49 45 40 48 47 41 43 46 47 47 46 45 39 32 25 23 33 33 39 30 33 40 43 45 46 36 39 49 51 52 53 48 47 41 42 41 40 44 45 40 39 42 44 43 43 42 41 40 39 40 42 38 37 42 43 43 42 42 42 41 40 38 37 39 38 38 34 34 35 35 34 34 34 33 33 33 34 34 35 36 36 37 38
48 48 48 48 49 48 43 46 46 44 42 45 47 47 47 45 42 42 28 16 14 35 32 35 33 41 40 46 46 39 44 47 41 47 52 52 49 46 41 41 39 38 41 41 33 37 41 41 42 42 42 41 40 40 42 43 41 41 42 45 44 44 43 43 42 40 38 36 34 35 35 32 32 33 35 34 32 33 33 33 32 32 32 32 33 34 35 36
49 48 48 48 49 48 48 46 44 43 46 47 47 46 44 44 38 33 24 14 25 27 44 33 44 41 43 45 43 40 44 46 39 48 52 52 50 47 42 42 40 38 42 40 33 35 40 41 43 43 42 41 42 42 45 45 42 42 43 42 42 43 43 44 41 40 37 36 34 36 36 33 32 31 33 33 33 33 33 33 32 32 32 33 33 33 34 34
49 49 48 50 49 48 46 45 43 44 47 46 46 45 43 40 34 26 19 9 23 19 34 40 31 35 44 41 41 40 39 42 45 48 51 48 49 47 46 47 43 41 42 42 36 36 38 43 44 43 42 42 42 43 46 46 43 44 42 40 39 39 37 37 39 37 35 32 35 36 36 34 31 31 32 32 33 33 33 33 32 32 34 33 33 33 34 38
49 49 49 49 45 46 46 42 44 46 47 46 45 43 41 37 27 20 15 15 24 27 40 37 31 43 40 38 36 39 39 40 42 45 44 48 45 46 47 43 43 41 42 42 40 39 40 41 42 40 42 41 44 41 41 45 44 42 39 38 39 36 37 35 33 35 33 31 36 38 36 35 32 32 33 32 33 33 32 31 31 31 32 34 35 35 37 38
49 49 49 47 47 47 43 41 44 46 47 46 44 42 38 23 27 17 14 21 15 19 31 33 37 39 38 37 38 39 36 38 41 43 42 43 40 40 42 38 40 33 32 36 35 40 39 40 40 40 41 42 39 41 40 42 40 40 39 39 36 31 34 29 32 29 30 31 32 36 36 33 34 34 31 32 32 33 33 32 32 32 33 34 35 36 36 39
48 49 49 47 47 45 44 45 46 46 47 46 43 41 28 20 13 21 22 19 13 29 29 36 35 38 36 35 34 38 37 34 40 41 43 44 42 41 42 41 41 37 32 38 36 36 37 41 40 39 39 41 43 39 38 38 40 39 38 37 34 29 28 26 29 31 30 31 32 32 34 34 35 35 36 35 34 33 33 33 34 34 35 35 36 37 37 39
49 48 48 48 47 46 45 46 46 46 46 45 40 32 27 16 16 23 22 20 16 31 35 35 36 37 36 31 32 37 35 37 38 39 42 39 40 37 41 42 41 38 32 38 35 35 31 31 37 40 37 41 42 39 40 38 39 39 37 38 35 31 29 26 28 27 28 30 31 32 32 31 33 33 37 36 36 35 34 34 36 37 38 37 37 38 38 40
49 48 47 48 47 47 46 46 46 46 45 42 35 29 18 16 18 18 19 21 22 32 32 37 35 35 33 33 32 36 35 35 38 38 39 38 35 37 38 39 41 39 35 35 36 35 33 34 41 41 40 41 40 40 41 40 39 39 38 39 34 32 30 27 28 27 28 29 30 32 32 36 34 37 37 37 36 36 36 36 36 35 35 36 37 38 38 39
48 46 47 45 45 47 47 46 46 45 44 37 30 23 21 20 15 21 19 24 24 28 30 35 35 31 32 32 31 33 37 34 38 38 37 38 38 37 39 40 40 40 37 34 36 33 34 31 41 40 41 40 40 39 40 39 33 37 36 34 34 37 35 29 29 30 29 29 27 32 33 35 35 34 36 36 35 35 34 33 32 31 31 34 36 37 37 38
45 46 41 45 46 47 46 47 46 44 42 36 28 22 25 21 23 24 31 22 26 30 31 28 29 30 30 30 31 32 35 35 36 37 32 38 36 39 38 40 41 40 38 36 33 35 32 30 40 39 38 41 41 39 40 38 38 38 34 36 36 38 36 30 26 31 28 26 26 32 29 29 28 26 32 33 33 33 33 33 30 29 33 34 36 37 38 40
44 44 44 43 45 47 46 47 45 43 39 31 25 27 27 23 26 25 30 24 23 26 26 29 29 34 30 31 30 31 34 32 34 36 32 37 31 39 39 39 41 40 39 39 35 34 36 31 35 39 39 40 41 41 40 40 40 38 36 39 33 31 30 32 30 25 25 25 23 27 29 27 30 28 27 30 30 30 30 30 28 27 32 34 34 35 38 40
43 42 37 42 47 45 46 46 44 40 34 28 27 26 28 27 31 28 30 28 27 23 22 24 24 31 31 31 30 32 34 31 33 33 32 34 32 39 38 39 39 41 40 39 36 34 35 30 33 39 38 38 40 39 33 38 41 40 39 36 36 34 32 30 29 28 28 23 22 19 27 24 29 28 27 26 27 29 28 28 29 31 33 33 34 35 37 40
39 37 35 44 46 47 47 45 40 37 31 25 27 26 30 26 29 31 32 32 29 25 19 21 23 28 32 30 31 31 34 33 31 34 32 35 35 40 38 39 38 40 40 40 37 36 34 32 29 37 40 40 35 38 35 37 35 37 37 36 34 32 32 33 31 29 26 22 23 18 21 25 28 29 27 26 25 26 27 26 30 32 32 32 34 35 38 41
42 36 36 45 46 47 45 42 34 29 28 30 30 26 25 25 28 29 31 33 30 34 28 24 24 24 26 27 28 32 33 33 32 33 33 33 35 33 39 39 40 39 40 39 39 37 31 27 29 35 35 36 37 39 37 37 38 37 35 34 34 32 31 28 26 32 28 22 19 20 20 20 25 30 28 27 26 26 27 27 29 31 31 32 34 33 39 41
38 31 35 45 46 45 40 29 31 32 31 28 27 28 26 33 28 28 28 31 30 28 32 31 31 30 31 30 29 34 33 33 33 32 33 31 35 34 38 40 39 40 39 37 37 37 34 31 31 33 34 36 37 40 40 39 39 37 36 34 35 33 32 29 25 28 27 28 25 21 17 23 28 30 31 29 28 28 28 30 30 32 32 31 32 37 40 41
36 32 44 45 45 43 38 31 32 30 28 30 30 29 29 30 28 28 28 30 27 29 28 28 30 30 32 31 32 31 32 31 33 31 33 34 33 35 36 40 39 40 39 38 39 39 39 29 30 31 37 38 39 40 39 39 39 38 39 36 35 33 33 30 28 30 28 25 25 21 21 22 31 33 32 32 32 31 28 30 30 30 30 31 34 38 38 37
36 35 38 44 43 42 34 25 25 28 29 27 29 28 29 29 28 29 27 29 26 27 26 27 28 32 30 34 34 31 34 28 32 33 31 34 33 36 37 39 39 39 38 37 36 40 34 31 31 30 29 32 33 35 36 33 38 37 36 36 36 35 34 31 27 25 27 28 27 25 22 21 29 32 32 30 30 28 27 29 30 31 33 35 37 38 38 38
36 35 37 41 43 39 31 31 28 27 29 27 28 27 28 27 30 31 29 28 28 28 28 27 27 32 32 35 33 34 35 31 31 35 34 33 33 35 37 40 39 39 39 39 39 40 35 32 31 28 25 24 23 25 27 31 34 37 36 36 36 35 34 31 29 28 26 26 28 22 18 25 28 30 30 30 29 28 29 31 33 33 35 36 38 38 38 38
34 28 30 34 39 38 33 32 30 29 28 28 26 26 28 26 29 31 32 30 31 30 30 28 32 31 30 32 30 31 33 35 33 31 31 31 32 33 37 40 40 39 39 40 40 39 32 31 32 31 29 27 28 31 35 36 36 33 34 35 35 35 34 33 31 29 27 27 27 27 24 25 26 28 29 29 30 30 30 33 31 34 35 36 36 36 35 35
33 29 29 26 32 33 32 30 30 30 27 29 25 27 25 27 28 30 32 27 31 32 30 29 28 26 26 29 28 27 29 30 34 33 32 32 32 32 36 39 40 40 40 39 41 36 29 32 33 32 31 30 30 35 35 35 34 34 34 34 35 35 34 33 30 29 30 29 25 28 28 26 25 26 28 29 29 31 32 32 32 34 35 35 34 34 35 33
28 26 31 31 29 27 29 30 31 29 27 28 25 27 26 26 27 25 29 31 32 33 30 28 31 30 29 28 26 23 24 26 30 29 32 33 33 32 35 38 39 40 40 39 40 37 32 32 33 33 32 32 32 34 35 34 33 34 34 35 35 35 35 33 32 31 31 28 26 28 30 28 27 26 27 28 29 29 30 32 32 33 34 32 32 32 32 32
31 28 30 35 31 31 31 31 31 28 28 28 26 26 24 25 26 27 30 30 30 31 31 25 29 32 31 30 29 27 26 23 24 31 31 31 33 33 32 35 38 35 39 37 39 36 34 32 33 34 32 32 32 32 35 33 33 33 33 34 35 35 35 34 33 33 32 30 30 29 30 30 30 29 28 29 30 30 31 33 34 33 33 33 32 32 32 32
27 31 27 32 32 31 31 31 30 29 28 30 27 27 26 26 25 27 30 30 28 28 30 28 26 29 31 31 31 28 28 28 26 26 32 33 32 33 35 36 35 36 38 38 39 36 36 32 34 33 32 31 31 32 34 34 32 31 32 34 34 35 35 35 34 34 33 32 31 30 30 30 31 31 31 33 31 32 35 34 34 33 32 32 32 32 32 31
32 32 33 31 30 31 31 30 29 28 27 29 27 27 27 27 26 27 28 31 29 27 30 29 29 27 30 31 32 31 31 30 30 31 35 35 33 34 35 33 37 35 36 35 34 33 34 31 34 32 29 29 30 28 30 32 33 32 32 33 33 34 33 34 34 34 32 31 31 31 28 28 30 32 33 34 34 33 34 35 34 33 33 33 33 32 32 31
35 35 35 32 26 33 30 30 30 28 25 28 27 27 27 27 27 27 26 29 31 31 30 30 30 29 28 30 31 32 33 33 32 33 36 37 38 36 35 35 38 36 36 36 36 33 33 30 30 30 29 28 31 29 28 28 28 29 31 33 34 34 34 35 35 35 34 33 31 30 29 30 30 32 30 30 33 35 35 35 35 35 34 33 33 32 31 31